Weather History for Avalon, CA

Change the Weather History Date:

Sunday, February 10, 2013

  Actual Average Record
Temperature  
Mean Temperature 45 °F -  
Max Temperature 48 °F 55 °F 72 °F (2006)
Min Temperature 42 °F 47 °F 42 °F (2009)
Degree Days  
Heating Degree Days 20    
Moisture  
Dew Point 39 °F    
Average Humidity 80    
Maximum Humidity 89    
Minimum Humidity 68    
Precipitation  
Precipitation 0.00 in - - ()
Sea Level Pressure  
Sea Level Pressure 30.06 in    
Wind  
Wind Speed 7 mph (West)    
Max Wind Speed 14 mph    
Max Gust Speed -    
Visibility 10 miles    
Events      
Averages and records for this station are not official NWS values.
T = Trace of Precipitation, MM = Missing Value Source: NWS Daily Summary

Daily Weather History Graph

Daily Weather History Graph

Search for Another Location

Airport:

Trip Planner

Search our weather history database for the weather conditions in past years. The results will help you decide how hot, cold, wet, or windy it might be!

Date:

Astronomy

Feb. 10, 2013 Rise Set
Actual Time 6:42 AM PST 5:34 PM PST
Civil Twilight 6:16 AM PST 5:59 PM PST
Nautical Twilight 5:47 AM PST 6:29 PM PST
Astronomical Twilight 5:18 AM PST 6:58 PM PST
Moon 6:38 AM PST (2/10) 6:24 PM PST (2/10)
Length of Visible Light 11h 43m
Length of Day
10h 52m
New Moon, 0% of the Moon is Illuminated
Feb 10
New Moon
Feb 17
First Quarter
Feb 25
Full
Mar 4
Last Quarter
Mar 11
New

Hourly Weather History & Observations

Time (PST) Temp. Windchill Dew Point Humidity Pressure Visibility Wind Dir Wind Speed Gust Speed Precip Events Conditions
12:28 AM 42.8 °F 38.6 °F 39.2 °F 87% 30.09 in 10.0 mi WSW 6.9 mph - N/A   Partly Cloudy
12:51 AM 43.0 °F 38.8 °F 39.0 °F 86% 30.10 in 10.0 mi WSW 6.9 mph - N/A   Clear
1:51 AM 43.0 °F 39.5 °F 37.9 °F 82% 30.09 in 10.0 mi WSW 5.8 mph - N/A   Clear
2:51 AM 43.0 °F 39.5 °F 37.9 °F 82% 30.08 in 10.0 mi WSW 5.8 mph - N/A   Clear
3:51 AM 42.1 °F 37.7 °F 37.9 °F 85% 30.07 in 10.0 mi WSW 6.9 mph - N/A   Clear
4:51 AM 42.1 °F 38.4 °F 37.9 °F 85% 30.07 in 10.0 mi West 5.8 mph - N/A   Clear
5:51 AM 43.0 °F 40.3 °F 39.0 °F 86% 30.07 in 10.0 mi WSW 4.6 mph - N/A   Clear
6:51 AM 42.1 °F 39.2 °F 39.0 °F 89% 30.09 in 10.0 mi WSW 4.6 mph - N/A   Clear
7:51 AM 44.1 °F 41.5 °F 39.9 °F 85% 30.09 in 10.0 mi WSW 4.6 mph - N/A   Partly Cloudy
8:51 AM 46.0 °F 43.9 °F 39.9 °F 79% 30.09 in 10.0 mi WSW 4.6 mph - N/A   Clear
9:20 AM 46.4 °F 41.5 °F 39.2 °F 76% 30.08 in 10.0 mi West 10.4 mph - N/A   Mostly Cloudy
9:31 AM 46.4 °F 42.4 °F 39.2 °F 76% 30.08 in 10.0 mi West 8.1 mph - N/A   Scattered Clouds
9:48 AM 46.4 °F 42.4 °F 39.2 °F 76% 30.08 in 10.0 mi West 8.1 mph - N/A   Mostly Cloudy
9:51 AM 48.0 °F - 37.9 °F 68% 30.10 in 10.0 mi WSW 6.9 mph - N/A   Mostly Cloudy
10:11 AM 48.2 °F - 39.2 °F 71% 30.09 in 10.0 mi West 10.4 mph - N/A   Partly Cloudy
10:51 AM 48.0 °F - 39.9 °F 74% 30.10 in 10.0 mi West 10.4 mph - N/A   Mostly Cloudy
11:42 AM 48.2 °F - 39.2 °F 71% 30.06 in 10.0 mi West 10.4 mph - N/A   Mostly Cloudy
11:51 AM 48.0 °F - 39.9 °F 74% 30.08 in 10.0 mi WSW 10.4 mph - N/A   Mostly Cloudy
12:04 PM 48.2 °F - 39.2 °F 71% 30.06 in 10.0 mi West 9.2 mph - N/A   Overcast
12:48 PM 48.2 °F - 41.0 °F 76% 30.04 in 10.0 mi West 8.1 mph - N/A   Overcast
12:51 PM 48.9 °F - 41.0 °F 74% 30.05 in 10.0 mi WSW 11.5 mph - N/A   Overcast
1:51 PM 46.9 °F - 39.0 °F 74% 30.05 in 10.0 mi West 8.1 mph - N/A   Overcast
2:44 PM 46.4 °F 42.4 °F 39.2 °F 76% 30.02 in 10.0 mi West 8.1 mph - N/A   Overcast
2:51 PM 46.9 °F - 39.0 °F 74% 30.04 in 10.0 mi West 8.1 mph - N/A   Overcast
3:23 PM 46.4 °F 42.9 °F 37.4 °F 71% 30.02 in 10.0 mi West 6.9 mph - N/A   Mostly Cloudy
3:49 PM 46.4 °F 41.9 °F 39.2 °F 76% 30.02 in 10.0 mi West 9.2 mph - N/A   Mostly Cloudy
3:51 PM 46.9 °F - 39.0 °F 74% 30.04 in 10.0 mi West 8.1 mph - N/A   Mostly Cloudy
4:12 PM 46.4 °F 41.5 °F 41.0 °F 81% 30.01 in 10.0 mi West 10.4 mph - N/A   Mostly Cloudy
4:36 PM 46.4 °F 40.4 °F 41.0 °F 81% 30.02 in 10.0 mi West 13.8 mph - N/A   Overcast
4:51 PM 46.0 °F 41.0 °F 41.0 °F 83% 30.04 in 10.0 mi West 10.4 mph - N/A   Overcast
4:59 PM 46.4 °F 41.5 °F 41.0 °F 81% 30.01 in 10.0 mi West 10.4 mph - N/A   Overcast
5:41 PM 44.6 °F 40.2 °F 39.2 °F 81% 30.02 in 10.0 mi West 8.1 mph - N/A   Partly Cloudy
5:51 PM 45.0 °F 41.8 °F 39.9 °F 82% 30.05 in 10.0 mi WSW 5.8 mph - N/A   Scattered Clouds
6:51 PM 44.1 °F 40.1 °F 39.9 °F 85% 30.06 in 10.0 mi West 6.9 mph - N/A   Partly Cloudy
7:51 PM 44.1 °F 41.5 °F 39.9 °F 85% 30.06 in 10.0 mi WNW 4.6 mph - N/A   Clear
8:51 PM 44.1 °F 40.1 °F 39.9 °F 85% 30.06 in 10.0 mi WNW 6.9 mph - N/A   Partly Cloudy
9:51 PM 44.1 °F 40.8 °F 39.0 °F 82% 30.06 in 10.0 mi WSW 5.8 mph - N/A   Clear
10:51 PM 43.0 °F 40.3 °F 39.9 °F 89% 30.07 in 10.0 mi West 4.6 mph - N/A   Clear
11:51 PM 44.1 °F 40.8 °F 41.0 °F 89% 30.07 in 10.0 mi West 5.8 mph - N/A   Overcast